COSMOS 1275 DEB, 14440

Orbit data source: Space-Track

COSMOS 1275 DEB, 14440 is space debris in LEO originally from a launch on Thu, 04 Jun 1981 UTC launched from the Plesetsk Missile And Space Complex (PKMTR). Debris objects in space refer to the collection of defunct objects orbiting the Earth. Examples of debris include non-operational satellites, rocket bodies, and fragments generated from explosions, collisions, or faulty payload assembly.

Loading next visibility...
Identifier
14440, 1981-053JG
Orbit
LEO
Country
Flag of CISCIS
Related business
Manufacturer
Unknown
Mission
Spacecraft
Bus & Motor
Unknown
Mass
Unknown
Launch date (UTC)
1981-06-04 (44 years ago)
Launch vehicle
Unknown
Launch site
Plesetsk Missile And Space Complex (PKMTR)
Object type
Payload
Rocket body
Debris
Shape & HBR
Unknown shape, 0.1 m
Radar Cross Section
Small (<0.1 m²)

Expand to show TLE details & history
Last TLE update: 4 days ago

TLE from 4 days ago
0 COSMOS 1275 DEB
1 14440U 81053JG  25287.27618198  .00000597  00000-0  70041-3 0  9992
2 14440  82.9242  15.9070 0113029   4.1665  51.2495 13.64124799180047
Epoch: 2025-10-14T06:37Z
TLE epoch observation values (Epoch: 2025-10-14T06:37:42.123Z)
Latitude
55.88018°
Longitude
-96.08486°
Altitude
978.259 km
Speed
7.394 km/s
True Right ascension
01h 45m 37s
True Declination
55° 43' 30"
Sunlit
Object was in full shadow at epoch
Visualization orbit readout
Latitude
Unknown
Longitude
Unknown
Altitude
Unknown
Speed
Unknown
Apparent Right ascension
Unknown
Apparent Declination
Unknown
Sunlit
N/A
Visualization observer readout
Local Sidereal Time
06:44:43
Azimuth
Unknown
Elevation
Unknown
Doppler factor
Unknown
Orbital elements
Apogee altitude
1,101.5 km
Perigee altitude
934.307 km
Semi-major axis
7,396.04 km
Eccentricity
0.0113
Inclination
82.9242°
RAAN
15.907°
Arg. of periapsis
4.1665°
True anomaly
52.26857°
Mean anomaly
51.2495°
Eccentric anomaly
51.75813°
Mean motion
3.41228 °/min
Orbital period
105.5 mins
BSTAR
0.00070041
Loading maneuver chart data...
Computing Atmospheric mass density...

Documentation

Showing up to 5 results
|